Netzbetreibername:;EG Oesterweg e.G.;;
Netz- oder Umspannebene:;Netzgebiet;;
Lastgangtyp:;Summenlast der Netzverluste;;
gesetzliche Grundlage:;� 17 Abs. 2 Nr. 3 StromNZV;;
Einheit:;kW;;
Betrachtungszeitraum:;01.01.2018;31.12.2018;
;;;
Datum;von;bis;Wert
01.01.2018;00:00;00:15;18
01.01.2018;00:15;00:30;17
01.01.2018;00:30;00:45;16
01.01.2018;00:45;01:00;15
01.01.2018;01:00;01:15;15
01.01.2018;01:15;01:30;15
01.01.2018;01:30;01:45;14
01.01.2018;01:45;02:00;14
01.01.2018;02:00;02:15;14
01.01.2018;02:15;02:30;14
01.01.2018;02:30;02:45;15
01.01.2018;02:45;03:00;15
01.01.2018;03:00;03:15;14
01.01.2018;03:15;03:30;14
01.01.2018;03:30;03:45;14
01.01.2018;03:45;04:00;14
01.01.2018;04:00;04:15;15
01.01.2018;04:15;04:30;14
01.01.2018;04:30;04:45;14
01.01.2018;04:45;05:00;14
01.01.2018;05:00;05:15;14
01.01.2018;05:15;05:30;13
01.01.2018;05:30;05:45;13
01.01.2018;05:45;06:00;12
01.01.2018;06:00;06:15;11
01.01.2018;06:15;06:30;11
01.01.2018;06:30;06:45;11
01.01.2018;06:45;07:00;11
01.01.2018;07:00;07:15;11
01.01.2018;07:15;07:30;11
01.01.2018;07:30;07:45;11
01.01.2018;07:45;08:00;12
01.01.2018;08:00;08:15;12
01.01.2018;08:15;08:30;12
01.01.2018;08:30;08:45;13
01.01.2018;08:45;09:00;14
01.01.2018;09:00;09:15;16
01.01.2018;09:15;09:30;16
01.01.2018;09:30;09:45;16
01.01.2018;09:45;10:00;17
01.01.2018;10:00;10:15;17
01.01.2018;10:15;10:30;19
01.01.2018;10:30;10:45;20
01.01.2018;10:45;11:00;22
01.01.2018;11:00;11:15;17
01.01.2018;11:15;11:30;16
01.01.2018;11:30;11:45;22
01.01.2018;11:45;12:00;23
01.01.2018;12:00;12:15;32
01.01.2018;12:15;12:30;35
01.01.2018;12:30;12:45;32
01.01.2018;12:45;13:00;32
01.01.2018;13:00;13:15;30
01.01.2018;13:15;13:30;28
01.01.2018;13:30;13:45;25
01.01.2018;13:45;14:00;28
01.01.2018;14:00;14:15;28
01.01.2018;14:15;14:30;25
01.01.2018;14:30;14:45;27
01.01.2018;14:45;15:00;30
01.01.2018;15:00;15:15;29
01.01.2018;15:15;15:30;27
01.01.2018;15:30;15:45;26
01.01.2018;15:45;16:00;25
01.01.2018;16:00;16:15;26
01.01.2018;16:15;16:30;26
01.01.2018;16:30;16:45;29
01.01.2018;16:45;17:00;32
01.01.2018;17:00;17:15;33
01.01.2018;17:15;17:30;33
01.01.2018;17:30;17:45;33
01.01.2018;17:45;18:00;36
01.01.2018;18:00;18:15;38
01.01.2018;18:15;18:30;38
01.01.2018;18:30;18:45;37
01.01.2018;18:45;19:00;35
01.01.2018;19:00;19:15;32
01.01.2018;19:15;19:30;33
01.01.2018;19:30;19:45;32
01.01.2018;19:45;20:00;30
01.01.2018;20:00;20:15;29
01.01.2018;20:15;20:30;28
01.01.2018;20:30;20:45;26
01.01.2018;20:45;21:00;24
01.01.2018;21:00;21:15;23
01.01.2018;21:15;21:30;22
01.01.2018;21:30;21:45;20
01.01.2018;21:45;22:00;19
01.01.2018;22:00;22:15;19
01.01.2018;22:15;22:30;19
01.01.2018;22:30;22:45;18
01.01.2018;22:45;23:00;16
01.01.2018;23:00;23:15;15
01.01.2018;23:15;23:30;14
01.01.2018;23:30;23:45;13
02.01.2018;23:45;00:00;12
02.01.2018;00:00;00:15;12
02.01.2018;00:15;00:30;12
02.01.2018;00:30;00:45;11
02.01.2018;00:45;01:00;11
02.01.2018;01:00;01:15;11
02.01.2018;01:15;01:30;10,96789286
02.01.2018;01:30;01:45;10,74634575
02.01.2018;01:45;02:00;10,92076854
02.01.2018;02:00;02:15;10,41701126
02.01.2018;02:15;02:30;10,35260329
02.01.2018;02:30;02:45;10,6235548
02.01.2018;02:45;03:00;11,35283088
02.01.2018;03:00;03:15;10,88214974
02.01.2018;03:15;03:30;11,5616649
02.01.2018;03:30;03:45;11,61472549
02.01.2018;03:45;04:00;11,57920798
02.01.2018;04:00;04:15;12,52857498
02.01.2018;04:15;04:30;12,89543085
02.01.2018;04:30;04:45;12,79504007
02.01.2018;04:45;05:00;13,17631557
02.01.2018;05:00;05:15;13
02.01.2018;05:15;05:30;14
02.01.2018;05:30;05:45;14
02.01.2018;05:45;06:00;15
02.01.2018;06:00;06:15;14
02.01.2018;06:15;06:30;14
02.01.2018;06:30;06:45;15
02.01.2018;06:45;07:00;15
02.01.2018;07:00;07:15;16
02.01.2018;07:15;07:30;16
02.01.2018;07:30;07:45;17
02.01.2018;07:45;08:00;20
02.01.2018;08:00;08:15;21
02.01.2018;08:15;08:30;20
02.01.2018;08:30;08:45;21
02.01.2018;08:45;09:00;22
02.01.2018;09:00;09:15;24
02.01.2018;09:15;09:30;26
02.01.2018;09:30;09:45;26
02.01.2018;09:45;10:00;30
02.01.2018;10:00;10:15;30
02.01.2018;10:15;10:30;29
02.01.2018;10:30;10:45;31
02.01.2018;10:45;11:00;31
02.01.2018;11:00;11:15;33
02.01.2018;11:15;11:30;36
02.01.2018;11:30;11:45;36
02.01.2018;11:45;12:00;40
02.01.2018;12:00;12:15;36
02.01.2018;12:15;12:30;34
02.01.2018;12:30;12:45;32
02.01.2018;12:45;13:00;34
02.01.2018;13:00;13:15;35
02.01.2018;13:15;13:30;35
02.01.2018;13:30;13:45;31
02.01.2018;13:45;14:00;29
02.01.2018;14:00;14:15;32
02.01.2018;14:15;14:30;34
02.01.2018;14:30;14:45;34
02.01.2018;14:45;15:00;32
02.01.2018;15:00;15:15;30
02.01.2018;15:15;15:30;31
02.01.2018;15:30;15:45;30
02.01.2018;15:45;16:00;27
02.01.2018;16:00;16:15;27
02.01.2018;16:15;16:30;28
02.01.2018;16:30;16:45;27
02.01.2018;16:45;17:00;29
02.01.2018;17:00;17:15;31
02.01.2018;17:15;17:30;32
02.01.2018;17:30;17:45;34
02.01.2018;17:45;18:00;35
02.01.2018;18:00;18:15;36
02.01.2018;18:15;18:30;34
02.01.2018;18:30;18:45;33
02.01.2018;18:45;19:00;32
02.01.2018;19:00;19:15;35
02.01.2018;19:15;19:30;35
02.01.2018;19:30;19:45;33
02.01.2018;19:45;20:00;31
02.01.2018;20:00;20:15;31
02.01.2018;20:15;20:30;29
02.01.2018;20:30;20:45;26
02.01.2018;20:45;21:00;25
02.01.2018;21:00;21:15;23
02.01.2018;21:15;21:30;24
02.01.2018;21:30;21:45;22
02.01.2018;21:45;22:00;22
02.01.2018;22:00;22:15;20
02.01.2018;22:15;22:30;20
02.01.2018;22:30;22:45;19
02.01.2018;22:45;23:00;17
02.01.2018;23:00;23:15;17
02.01.2018;23:15;23:30;15
02.01.2018;23:30;23:45;13
03.01.2018;23:45;00:00;13
03.01.2018;00:00;00:15;12
03.01.2018;00:15;00:30;12
03.01.2018;00:30;00:45;11
03.01.2018;00:45;01:00;11
03.01.2018;01:00;01:15;11
03.01.2018;01:15;01:30;11
03.01.2018;01:30;01:45;11
03.01.2018;01:45;02:00;11
03.01.2018;02:00;02:15;11
03.01.2018;02:15;02:30;11
03.01.2018;02:30;02:45;11
03.01.2018;02:45;03:00;11
03.01.2018;03:00;03:15;11
03.01.2018;03:15;03:30;11,62572812
03.01.2018;03:30;03:45;11,86208594
03.01.2018;03:45;04:00;11,24779329
03.01.2018;04:00;04:15;12,11212122
03.01.2018;04:15;04:30;12,50057267
03.01.2018;04:30;04:45;12
03.01.2018;04:45;05:00;12
03.01.2018;05:00;05:15;12
03.01.2018;05:15;05:30;12
03.01.2018;05:30;05:45;14
03.01.2018;05:45;06:00;15
03.01.2018;06:00;06:15;14
03.01.2018;06:15;06:30;14
03.01.2018;06:30;06:45;14
03.01.2018;06:45;07:00;14
03.01.2018;07:00;07:15;14
03.01.2018;07:15;07:30;16
03.01.2018;07:30;07:45;17
03.01.2018;07:45;08:00;19
03.01.2018;08:00;08:15;20
03.01.2018;08:15;08:30;21
03.01.2018;08:30;08:45;20
03.01.2018;08:45;09:00;21
03.01.2018;09:00;09:15;24
03.01.2018;09:15;09:30;23
03.01.2018;09:30;09:45;24
03.01.2018;09:45;10:00;25
03.01.2018;10:00;10:15;27
03.01.2018;10:15;10:30;29
03.01.2018;10:30;10:45;28
03.01.2018;10:45;11:00;30
03.01.2018;11:00;11:15;32
03.01.2018;11:15;11:30;31
03.01.2018;11:30;11:45;31
03.01.2018;11:45;12:00;35
03.01.2018;12:00;12:15;36
03.01.2018;12:15;12:30;40
03.01.2018;12:30;12:45;41
03.01.2018;12:45;13:00;39
03.01.2018;13:00;13:15;40
03.01.2018;13:15;13:30;40
03.01.2018;13:30;13:45;37
03.01.2018;13:45;14:00;36
03.01.2018;14:00;14:15;35
03.01.2018;14:15;14:30;36
03.01.2018;14:30;14:45;36
03.01.2018;14:45;15:00;34
03.01.2018;15:00;15:15;31
03.01.2018;15:15;15:30;31
03.01.2018;15:30;15:45;30
03.01.2018;15:45;16:00;30
03.01.2018;16:00;16:15;30
03.01.2018;16:15;16:30;29
03.01.2018;16:30;16:45;32
03.01.2018;16:45;17:00;36
03.01.2018;17:00;17:15;35
03.01.2018;17:15;17:30;34
03.01.2018;17:30;17:45;36
03.01.2018;17:45;18:00;37
03.01.2018;18:00;18:15;37
03.01.2018;18:15;18:30;35
03.01.2018;18:30;18:45;35
03.01.2018;18:45;19:00;34
03.01.2018;19:00;19:15;35
03.01.2018;19:15;19:30;35
03.01.2018;19:30;19:45;34
03.01.2018;19:45;20:00;33
03.01.2018;20:00;20:15;33
03.01.2018;20:15;20:30;29
03.01.2018;20:30;20:45;26
03.01.2018;20:45;21:00;27
03.01.2018;21:00;21:15;23
03.01.2018;21:15;21:30;23
03.01.2018;21:30;21:45;22
03.01.2018;21:45;22:00;20
03.01.2018;22:00;22:15;20
03.01.2018;22:15;22:30;20
03.01.2018;22:30;22:45;18
03.01.2018;22:45;23:00;17
03.01.2018;23:00;23:15;16
03.01.2018;23:15;23:30;15
03.01.2018;23:30;23:45;14
04.01.2018;23:45;00:00;13
04.01.2018;00:00;00:15;12
04.01.2018;00:15;00:30;11
04.01.2018;00:30;00:45;11
04.01.2018;00:45;01:00;11
04.01.2018;01:00;01:15;11
04.01.2018;01:15;01:30;11
04.01.2018;01:30;01:45;11
04.01.2018;01:45;02:00;11
04.01.2018;02:00;02:15;11
04.01.2018;02:15;02:30;10
04.01.2018;02:30;02:45;10
04.01.2018;02:45;03:00;11
04.01.2018;03:00;03:15;11
04.01.2018;03:15;03:30;12
04.01.2018;03:30;03:45;12
04.01.2018;03:45;04:00;11
04.01.2018;04:00;04:15;13
04.01.2018;04:15;04:30;13
04.01.2018;04:30;04:45;13
04.01.2018;04:45;05:00;12
04.01.2018;05:00;05:15;13
04.01.2018;05:15;05:30;14
04.01.2018;05:30;05:45;14
04.01.2018;05:45;06:00;14
04.01.2018;06:00;06:15;15
04.01.2018;06:15;06:30;14
04.01.2018;06:30;06:45;15
04.01.2018;06:45;07:00;15
04.01.2018;07:00;07:15;16
04.01.2018;07:15;07:30;17
04.01.2018;07:30;07:45;18
04.01.2018;07:45;08:00;21
04.01.2018;08:00;08:15;19
04.01.2018;08:15;08:30;21
04.01.2018;08:30;08:45;21
04.01.2018;08:45;09:00;21
04.01.2018;09:00;09:15;22
04.01.2018;09:15;09:30;25
04.01.2018;09:30;09:45;26
04.01.2018;09:45;10:00;26
04.01.2018;10:00;10:15;27
04.01.2018;10:15;10:30;30
04.01.2018;10:30;10:45;30
04.01.2018;10:45;11:00;29
04.01.2018;11:00;11:15;30
04.01.2018;11:15;11:30;32
04.01.2018;11:30;11:45;35
04.01.2018;11:45;12:00;35
04.01.2018;12:00;12:15;37
04.01.2018;12:15;12:30;37
04.01.2018;12:30;12:45;36
04.01.2018;12:45;13:00;32
04.01.2018;13:00;13:15;33
04.01.2018;13:15;13:30;37
04.01.2018;13:30;13:45;35
04.01.2018;13:45;14:00;35
04.01.2018;14:00;14:15;32
04.01.2018;14:15;14:30;31
04.01.2018;14:30;14:45;31
04.01.2018;14:45;15:00;29
04.01.2018;15:00;15:15;29
04.01.2018;15:15;15:30;28
04.01.2018;15:30;15:45;28
04.01.2018;15:45;16:00;27
04.01.2018;16:00;16:15;28
04.01.2018;16:15;16:30;28
04.01.2018;16:30;16:45;27
04.01.2018;16:45;17:00;29
04.01.2018;17:00;17:15;29
04.01.2018;17:15;17:30;31
04.01.2018;17:30;17:45;34
04.01.2018;17:45;18:00;37
04.01.2018;18:00;18:15;38
04.01.2018;18:15;18:30;38
04.01.2018;18:30;18:45;37
04.01.2018;18:45;19:00;36
04.01.2018;19:00;19:15;36
04.01.2018;19:15;19:30;36
04.01.2018;19:30;19:45;32
04.01.2018;19:45;20:00;33
04.01.2018;20:00;20:15;29
04.01.2018;20:15;20:30;26
04.01.2018;20:30;20:45;24
04.01.2018;20:45;21:00;23
04.01.2018;21:00;21:15;25
04.01.2018;21:15;21:30;24
04.01.2018;21:30;21:45;23
04.01.2018;21:45;22:00;21
04.01.2018;22:00;22:15;22
04.01.2018;22:15;22:30;21
04.01.2018;22:30;22:45;21
04.01.2018;22:45;23:00;18
04.01.2018;23:00;23:15;17
04.01.2018;23:15;23:30;15
04.01.2018;23:30;23:45;14
05.01.2018;23:45;00:00;13
05.01.2018;00:00;00:15;13
05.01.2018;00:15;00:30;12
05.01.2018;00:30;00:45;12
05.01.2018;00:45;01:00;11
05.01.2018;01:00;01:15;11
05.01.2018;01:15;01:30;11
05.01.2018;01:30;01:45;11
05.01.2018;01:45;02:00;10
05.01.2018;02:00;02:15;11
05.01.2018;02:15;02:30;11
05.01.2018;02:30;02:45;10
05.01.2018;02:45;03:00;11
05.01.2018;03:00;03:15;11
05.01.2018;03:15;03:30;12
05.01.2018;03:30;03:45;12
05.01.2018;03:45;04:00;12
05.01.2018;04:00;04:15;13
05.01.2018;04:15;04:30;13
05.01.2018;04:30;04:45;13
05.01.2018;04:45;05:00;13
05.01.2018;05:00;05:15;13
05.01.2018;05:15;05:30;13
05.01.2018;05:30;05:45;14
05.01.2018;05:45;06:00;14
05.01.2018;06:00;06:15;14
05.01.2018;06:15;06:30;15
05.01.2018;06:30;06:45;16
05.01.2018;06:45;07:00;15
05.01.2018;07:00;07:15;16
05.01.2018;07:15;07:30;17
05.01.2018;07:30;07:45;18
05.01.2018;07:45;08:00;19
05.01.2018;08:00;08:15;21
05.01.2018;08:15;08:30;22
05.01.2018;08:30;08:45;21
05.01.2018;08:45;09:00;23
05.01.2018;09:00;09:15;25
05.01.2018;09:15;09:30;25
05.01.2018;09:30;09:45;25
05.01.2018;09:45;10:00;28
05.01.2018;10:00;10:15;27
05.01.2018;10:15;10:30;25
05.01.2018;10:30;10:45;27
05.01.2018;10:45;11:00;30
05.01.2018;11:00;11:15;32
05.01.2018;11:15;11:30;33
05.01.2018;11:30;11:45;37
05.01.2018;11:45;12:00;41
05.01.2018;12:00;12:15;42
05.01.2018;12:15;12:30;40
05.01.2018;12:30;12:45;41
05.01.2018;12:45;13:00;38
05.01.2018;13:00;13:15;36
05.01.2018;13:15;13:30;35
05.01.2018;13:30;13:45;30
05.01.2018;13:45;14:00;33
05.01.2018;14:00;14:15;30
05.01.2018;14:15;14:30;28
05.01.2018;14:30;14:45;29
05.01.2018;14:45;15:00;29
05.01.2018;15:00;15:15;28
05.01.2018;15:15;15:30;28
05.01.2018;15:30;15:45;28
05.01.2018;15:45;16:00;29
05.01.2018;16:00;16:15;27
05.01.2018;16:15;16:30;26
05.01.2018;16:30;16:45;27
05.01.2018;16:45;17:00;29
05.01.2018;17:00;17:15;32
05.01.2018;17:15;17:30;32
05.01.2018;17:30;17:45;36
05.01.2018;17:45;18:00;37
05.01.2018;18:00;18:15;39
05.01.2018;18:15;18:30;39
05.01.2018;18:30;18:45;42
05.01.2018;18:45;19:00;40
05.01.2018;19:00;19:15;37
05.01.2018;19:15;19:30;33
05.01.2018;19:30;19:45;33
05.01.2018;19:45;20:00;32
05.01.2018;20:00;20:15;31
05.01.2018;20:15;20:30;29
05.01.2018;20:30;20:45;28
05.01.2018;20:45;21:00;26
05.01.2018;21:00;21:15;23
05.01.2018;21:15;21:30;24
05.01.2018;21:30;21:45;23
05.01.2018;21:45;22:00;21
05.01.2018;22:00;22:15;22
05.01.2018;22:15;22:30;22
05.01.2018;22:30;22:45;21
05.01.2018;22:45;23:00;19
05.01.2018;23:00;23:15;18
05.01.2018;23:15;23:30;17
05.01.2018;23:30;23:45;15
06.01.2018;23:45;00:00;15
06.01.2018;00:00;00:15;14
06.01.2018;00:15;00:30;14
06.01.2018;00:30;00:45;13
06.01.2018;00:45;01:00;12
06.01.2018;01:00;01:15;11
06.01.2018;01:15;01:30;12
06.01.2018;01:30;01:45;12
06.01.2018;01:45;02:00;12
06.01.2018;02:00;02:15;12
06.01.2018;02:15;02:30;11
06.01.2018;02:30;02:45;11
06.01.2018;02:45;03:00;12
06.01.2018;03:00;03:15;12
06.01.2018;03:15;03:30;12
06.01.2018;03:30;03:45;13
06.01.2018;03:45;04:00;12
06.01.2018;04:00;04:15;12
06.01.2018;04:15;04:30;12
06.01.2018;04:30;04:45;14
06.01.2018;04:45;05:00;13
06.01.2018;05:00;05:15;13
06.01.2018;05:15;05:30;12
06.01.2018;05:30;05:45;12
06.01.2018;05:45;06:00;12
06.01.2018;06:00;06:15;11
06.01.2018;06:15;06:30;12
06.01.2018;06:30;06:45;12
06.01.2018;06:45;07:00;14
06.01.2018;07:00;07:15;14
06.01.2018;07:15;07:30;15
06.01.2018;07:30;07:45;15
06.01.2018;07:45;08:00;16
06.01.2018;08:00;08:15;18
06.01.2018;08:15;08:30;20
06.01.2018;08:30;08:45;20
06.01.2018;08:45;09:00;21
06.01.2018;09:00;09:15;22
06.01.2018;09:15;09:30;23
06.01.2018;09:30;09:45;25
06.01.2018;09:45;10:00;27
06.01.2018;10:00;10:15;26
06.01.2018;10:15;10:30;26
06.01.2018;10:30;10:45;25
06.01.2018;10:45;11:00;28
06.01.2018;11:00;11:15;30
06.01.2018;11:15;11:30;33
06.01.2018;11:30;11:45;35
06.01.2018;11:45;12:00;33
06.01.2018;12:00;12:15;35
06.01.2018;12:15;12:30;35
06.01.2018;12:30;12:45;34
06.01.2018;12:45;13:00;35
06.01.2018;13:00;13:15;36
06.01.2018;13:15;13:30;37
06.01.2018;13:30;13:45;34
06.01.2018;13:45;14:00;35
06.01.2018;14:00;14:15;36
06.01.2018;14:15;14:30;35
06.01.2018;14:30;14:45;33
06.01.2018;14:45;15:00;32
06.01.2018;15:00;15:15;33
06.01.2018;15:15;15:30;31
06.01.2018;15:30;15:45;28
06.01.2018;15:45;16:00;27
06.01.2018;16:00;16:15;31
06.01.2018;16:15;16:30;31
06.01.2018;16:30;16:45;29
06.01.2018;16:45;17:00;33
06.01.2018;17:00;17:15;32
06.01.2018;17:15;17:30;34
06.01.2018;17:30;17:45;34
06.01.2018;17:45;18:00;37
06.01.2018;18:00;18:15;35
06.01.2018;18:15;18:30;35
06.01.2018;18:30;18:45;36
06.01.2018;18:45;19:00;35
06.01.2018;19:00;19:15;34
06.01.2018;19:15;19:30;34
06.01.2018;19:30;19:45;31
06.01.2018;19:45;20:00;30
06.01.2018;20:00;20:15;30
06.01.2018;20:15;20:30;28
06.01.2018;20:30;20:45;26
06.01.2018;20:45;21:00;24
06.01.2018;21:00;21:15;23
06.01.2018;21:15;21:30;23
06.01.2018;21:30;21:45;21
06.01.2018;21:45;22:00;21
06.01.2018;22:00;22:15;21
06.01.2018;22:15;22:30;21
06.01.2018;22:30;22:45;21
06.01.2018;22:45;23:00;19
06.01.2018;23:00;23:15;19
06.01.2018;23:15;23:30;18
06.01.2018;23:30;23:45;18
07.01.2018;23:45;00:00;16
07.01.2018;00:00;00:15;14
07.01.2018;00:15;00:30;14
07.01.2018;00:30;00:45;13
07.01.2018;00:45;01:00;12
07.01.2018;01:00;01:15;12
07.01.2018;01:15;01:30;12
07.01.2018;01:30;01:45;11
07.01.2018;01:45;02:00;12
07.01.2018;02:00;02:15;12
07.01.2018;02:15;02:30;12
07.01.2018;02:30;02:45;12
07.01.2018;02:45;03:00;12
07.01.2018;03:00;03:15;12
07.01.2018;03:15;03:30;12
07.01.2018;03:30;03:45;12
07.01.2018;03:45;04:00;12
07.01.2018;04:00;04:15;13
07.01.2018;04:15;04:30;12
07.01.2018;04:30;04:45;12
07.01.2018;04:45;05:00;12
07.01.2018;05:00;05:15;13
07.01.2018;05:15;05:30;12
07.01.2018;05:30;05:45;12
07.01.2018;05:45;06:00;11
07.01.2018;06:00;06:15;11
07.01.2018;06:15;06:30;11
07.01.2018;06:30;06:45;11
07.01.2018;06:45;07:00;12
07.01.2018;07:00;07:15;12
07.01.2018;07:15;07:30;12
07.01.2018;07:30;07:45;14
07.01.2018;07:45;08:00;14
07.01.2018;08:00;08:15;16
07.01.2018;08:15;08:30;19
07.01.2018;08:30;08:45;19
07.01.2018;08:45;09:00;21
07.01.2018;09:00;09:15;23
07.01.2018;09:15;09:30;24
07.01.2018;09:30;09:45;26
07.01.2018;09:45;10:00;27
07.01.2018;10:00;10:15;26
07.01.2018;10:15;10:30;23
07.01.2018;10:30;10:45;22
07.01.2018;10:45;11:00;23
07.01.2018;11:00;11:15;25
07.01.2018;11:15;11:30;26
07.01.2018;11:30;11:45;28
07.01.2018;11:45;12:00;32
07.01.2018;12:00;12:15;33
07.01.2018;12:15;12:30;25
07.01.2018;12:30;12:45;15
07.01.2018;12:45;13:00;14
07.01.2018;13:00;13:15;18
07.01.2018;13:15;13:30;19
07.01.2018;13:30;13:45;19
07.01.2018;13:45;14:00;17
07.01.2018;14:00;14:15;18
07.01.2018;14:15;14:30;18
07.01.2018;14:30;14:45;19
07.01.2018;14:45;15:00;18
07.01.2018;15:00;15:15;21
07.01.2018;15:15;15:30;22
07.01.2018;15:30;15:45;24
07.01.2018;15:45;16:00;24
07.01.2018;16:00;16:15;26
07.01.2018;16:15;16:30;25
07.01.2018;16:30;16:45;25
07.01.2018;16:45;17:00;27
07.01.2018;17:00;17:15;31
07.01.2018;17:15;17:30;34
07.01.2018;17:30;17:45;35
07.01.2018;17:45;18:00;35
07.01.2018;18:00;18:15;41
07.01.2018;18:15;18:30;41
07.01.2018;18:30;18:45;39
07.01.2018;18:45;19:00;38
07.01.2018;19:00;19:15;38
07.01.2018;19:15;19:30;34
07.01.2018;19:30;19:45;30
07.01.2018;19:45;20:00;34
07.01.2018;20:00;20:15;30
07.01.2018;20:15;20:30;29
07.01.2018;20:30;20:45;28
07.01.2018;20:45;21:00;26
07.01.2018;21:00;21:15;25
07.01.2018;21:15;21:30;25
07.01.2018;21:30;21:45;23
07.01.2018;21:45;22:00;21
07.01.2018;22:00;22:15;20
07.01.2018;22:15;22:30;20
07.01.2018;22:30;22:45;18
07.01.2018;22:45;23:00;17
07.01.2018;23:00;23:15;16
07.01.2018;23:15;23:30;16
07.01.2018;23:30;23:45;15
08.01.2018;23:45;00:00;14
08.01.2018;00:00;00:15;13
08.01.2018;00:15;00:30;13
08.01.2018;00:30;00:45;13
08.01.2018;00:45;01:00;13
08.01.2018;01:00;01:15;13
08.01.2018;01:15;01:30;12
08.01.2018;01:30;01:45;12
08.01.2018;01:45;02:00;13
08.01.2018;02:00;02:15;12
08.01.2018;02:15;02:30;13
08.01.2018;02:30;02:45;12
08.01.2018;02:45;03:00;13
08.01.2018;03:00;03:15;12
08.01.2018;03:15;03:30;12
08.01.2018;03:30;03:45;13
08.01.2018;03:45;04:00;12
08.01.2018;04:00;04:15;13
08.01.2018;04:15;04:30;13
08.01.2018;04:30;04:45;13
08.01.2018;04:45;05:00;14
08.01.2018;05:00;05:15;13
08.01.2018;05:15;05:30;15
08.01.2018;05:30;05:45;15
08.01.2018;05:45;06:00;15
08.01.2018;06:00;06:15;17
08.01.2018;06:15;06:30;18
08.01.2018;06:30;06:45;18
08.01.2018;06:45;07:00;20
08.01.2018;07:00;07:15;20
08.01.2018;07:15;07:30;20
08.01.2018;07:30;07:45;22
08.01.2018;07:45;08:00;23
08.01.2018;08:00;08:15;23
08.01.2018;08:15;08:30;23
08.01.2018;08:30;08:45;22
08.01.2018;08:45;09:00;24
08.01.2018;09:00;09:15;22
08.01.2018;09:15;09:30;22
08.01.2018;09:30;09:45;22
08.01.2018;09:45;10:00;21
08.01.2018;10:00;10:15;21
08.01.2018;10:15;10:30;17
08.01.2018;10:30;10:45;16
08.01.2018;10:45;11:00;17
08.01.2018;11:00;11:15;19
08.01.2018;11:15;11:30;17
08.01.2018;11:30;11:45;16
08.01.2018;11:45;12:00;17
08.01.2018;12:00;12:15;17
08.01.2018;12:15;12:30;15
08.01.2018;12:30;12:45;16
08.01.2018;12:45;13:00;15
08.01.2018;13:00;13:15;15
08.01.2018;13:15;13:30;15
08.01.2018;13:30;13:45;17
08.01.2018;13:45;14:00;18
08.01.2018;14:00;14:15;18
08.01.2018;14:15;14:30;17
08.01.2018;14:30;14:45;20
08.01.2018;14:45;15:00;17
08.01.2018;15:00;15:15;19
08.01.2018;15:15;15:30;23
08.01.2018;15:30;15:45;25
08.01.2018;15:45;16:00;24
08.01.2018;16:00;16:15;26
08.01.2018;16:15;16:30;28
08.01.2018;16:30;16:45;27
08.01.2018;16:45;17:00;30
08.01.2018;17:00;17:15;33
08.01.2018;17:15;17:30;34
08.01.2018;17:30;17:45;37
08.01.2018;17:45;18:00;43
08.01.2018;18:00;18:15;44
08.01.2018;18:15;18:30;40
08.01.2018;18:30;18:45;43
08.01.2018;18:45;19:00;39
08.01.2018;19:00;19:15;42
08.01.2018;19:15;19:30;42
08.01.2018;19:30;19:45;33
08.01.2018;19:45;20:00;34
08.01.2018;20:00;20:15;33
08.01.2018;20:15;20:30;28
08.01.2018;20:30;20:45;26
08.01.2018;20:45;21:00;25
08.01.2018;21:00;21:15;24
08.01.2018;21:15;21:30;24
08.01.2018;21:30;21:45;22
08.01.2018;21:45;22:00;20
08.01.2018;22:00;22:15;21
08.01.2018;22:15;22:30;21
08.01.2018;22:30;22:45;20
08.01.2018;22:45;23:00;18
08.01.2018;23:00;23:15;16
08.01.2018;23:15;23:30;16
08.01.2018;23:30;23:45;14
09.01.2018;23:45;00:00;13
09.01.2018;00:00;00:15;12
09.01.2018;00:15;00:30;12
09.01.2018;00:30;00:45;12
09.01.2018;00:45;01:00;12
09.01.2018;01:00;01:15;11
09.01.2018;01:15;01:30;11
09.01.2018;01:30;01:45;11
09.01.2018;01:45;02:00;11
09.01.2018;02:00;02:15;12
09.01.2018;02:15;02:30;11
09.01.2018;02:30;02:45;11
09.01.2018;02:45;03:00;12
09.01.2018;03:00;03:15;12
09.01.2018;03:15;03:30;12
09.01.2018;03:30;03:45;12
09.01.2018;03:45;04:00;12
09.01.2018;04:00;04:15;13
09.01.2018;04:15;04:30;13
09.01.2018;04:30;04:45;13
09.01.2018;04:45;05:00;13
09.01.2018;05:00;05:15;13
09.01.2018;05:15;05:30;14
09.01.2018;05:30;05:45;14
09.01.2018;05:45;06:00;15
09.01.2018;06:00;06:15;16
09.01.2018;06:15;06:30;17
09.01.2018;06:30;06:45;17
09.01.2018;06:45;07:00;18
09.01.2018;07:00;07:15;19
09.01.2018;07:15;07:30;21
09.01.2018;07:30;07:45;23
09.01.2018;07:45;08:00;22
09.01.2018;08:00;08:15;22
09.01.2018;08:15;08:30;23
09.01.2018;08:30;08:45;23
09.01.2018;08:45;09:00;23
09.01.2018;09:00;09:15;22
09.01.2018;09:15;09:30;24
09.01.2018;09:30;09:45;26
09.01.2018;09:45;10:00;24
09.01.2018;10:00;10:15;25
09.01.2018;10:15;10:30;23
09.01.2018;10:30;10:45;24
09.01.2018;10:45;11:00;24
09.01.2018;11:00;11:15;25
09.01.2018;11:15;11:30;27
09.01.2018;11:30;11:45;29
09.01.2018;11:45;12:00;30
09.01.2018;12:00;12:15;29
09.01.2018;12:15;12:30;30
09.01.2018;12:30;12:45;30
09.01.2018;12:45;13:00;30
09.01.2018;13:00;13:15;32
09.01.2018;13:15;13:30;30
09.01.2018;13:30;13:45;31
09.01.2018;13:45;14:00;31
09.01.2018;14:00;14:15;29
09.01.2018;14:15;14:30;26
09.01.2018;14:30;14:45;26
09.01.2018;14:45;15:00;25
09.01.2018;15:00;15:15;26
09.01.2018;15:15;15:30;26
09.01.2018;15:30;15:45;26
09.01.2018;15:45;16:00;26
09.01.2018;16:00;16:15;25
09.01.2018;16:15;16:30;27
09.01.2018;16:30;16:45;27
09.01.2018;16:45;17:00;29
09.01.2018;17:00;17:15;31
09.01.2018;17:15;17:30;36
09.01.2018;17:30;17:45;38
09.01.2018;17:45;18:00;38
09.01.2018;18:00;18:15;39
09.01.2018;18:15;18:30;38
09.01.2018;18:30;18:45;38
09.01.2018;18:45;19:00;36
09.01.2018;19:00;19:15;37
09.01.2018;19:15;19:30;35
09.01.2018;19:30;19:45;30
09.01.2018;19:45;20:00;31
09.01.2018;20:00;20:15;29
09.01.2018;20:15;20:30;27
09.01.2018;20:30;20:45;24
09.01.2018;20:45;21:00;23
09.01.2018;21:00;21:15;23
09.01.2018;21:15;21:30;21
09.01.2018;21:30;21:45;21
09.01.2018;21:45;22:00;20
09.01.2018;22:00;22:15;21
09.01.2018;22:15;22:30;20
09.01.2018;22:30;22:45;19
09.01.2018;22:45;23:00;17
09.01.2018;23:00;23:15;16
09.01.2018;23:15;23:30;16
09.01.2018;23:30;23:45;14
10.01.2018;23:45;00:00;13
10.01.2018;00:00;00:15;12
10.01.2018;00:15;00:30;11
10.01.2018;00:30;00:45;11
10.01.2018;00:45;01:00;11
10.01.2018;01:00;01:15;11
10.01.2018;01:15;01:30;11
10.01.2018;01:30;01:45;12
10.01.2018;01:45;02:00;11